User: anonymous   Login
Location: Mactaquac Provincial Park
(45.9573°N, 66.8897°W)
Time: 16:26:31
(UTC-03:00)
Language:

Cosmos 1766 - Orbit

View from above orbital plane
View from above orbital plane
View from above satellite
View from above satellite

Ground track
Ground track

The orbit data is extracted from the following two-line orbital elements,

1 16881U 86055A   18143.71188310 -.00000047  00000-0 -47542-5 0  9994
2 16881  82.5072  50.4880 0017212  13.3181 346.8499 15.10490291732833
Epoch (UTC): 23 May 2018 17:05:06
Eccentricity: 0.0017212
inclination: 82.5072°
perigee height: 523 km
apogee height: 546 km
right ascension of ascending node: 50.4880°
argument of perigee: 13.3181°
revolutions per day: 15.10490291
mean anomaly at epoch: 346.8499°
orbit number at epoch: 73283

The dashed part of the orbit path shows where the satellite is in the earth's shadow,  

DLR